When you browse on this site, cookies collect data to enhance your experience and personalize the content and advertising you see.
Visit our Privacy Policy to learn more. By continuing to use the site, you agree to this use of cookies and data.
  • In Latvia
  • List of Countries
  • For 7 days
  • Water Temperature
  • Satellite Maps
  • Weather Map
  • Weather Widgets
  • user-avatar
    Login

    Hourly Weather Nagano

    Today, 19 January, Saturday

    Time Temperature Precipitation Wind Pressure Humidity
    00:00 -3°C° 0 mm 1 mps 696 mmHg 64%
    01:00 -3°C° 0 mm 1 mps 696 mmHg 65%
    02:00 -3°C° 0 mm 1 mps 696 mmHg 66%
    03:00 -2°C° 0 mm 1 mps 695 mmHg 67%
    04:00 -2°C° 0 mm 1 mps 695 mmHg 68%
    05:00 -2°C° 0 mm 1 mps 696 mmHg 69%
    06:00 -3°C° 0 mm 1 mps 696 mmHg 70%
    07:00 -2°C° 0 mm 1 mps 696 mmHg 66%
    08:00 -1°C° 0 mm 1 mps 696 mmHg 62%
    09:00 0°C° 0 mm 1 mps 696 mmHg 59%
    10:00 +2°C° 0 mm 1 mps 696 mmHg 54%
    11:00 +3°C° 0 mm 1 mps 696 mmHg 49%
    12:00 +5°C° 0 mm 1 mps 696 mmHg 44%
    13:00 +5°C° 0 mm 1 mps 696 mmHg 45%
    14:00 +5°C° 0 mm 1 mps 696 mmHg 45%
    15:00 +5°C° 0 mm 1 mps 695 mmHg 48%
    16:00 +4°C° 0 mm 1 mps 695 mmHg 56%
    17:00 +2°C° 0 mm 1 mps 695 mmHg 63%
    18:00 0°C° 0 mm 1 mps 695 mmHg 70%
    19:00 0°C° 0 mm 1 mps 694 mmHg 70%
    20:00 -1°C° 0 mm 1 mps 694 mmHg 70%
    21:00 -1°C° 0 mm 1 mps 694 mmHg 71%
    22:00 -1°C° 0 mm 1 mps 693 mmHg 70%
    23:00 -1°C° 0 mm 1 mps 693 mmHg 70%

    Tomorrow, 20 January, Sunday

    Time Temperature Precipitation Wind Pressure Humidity
    00:00 -1°C° 0 mm 1 mps 693 mmHg 69%
    01:00 -1°C° 0 mm 1 mps 692 mmHg 69%
    02:00 -1°C° 0 mm 1 mps 692 mmHg 70%
    03:00 -1°C° 0 mm 1 mps 691 mmHg 70%
    04:00 -2°C° 0 mm 2 mps 690 mmHg 73%
    05:00 -2°C° 0 mm 2 mps 690 mmHg 75%
    06:00 -2°C° 0 mm 2 mps 689 mmHg 78%
    07:00 -1°C° 0.2 mm 2 mps 689 mmHg 77%
    08:00 +1°C° 0.2 mm 2 mps 688 mmHg 75%
    09:00 +2°C° 0.2 mm 2 mps 688 mmHg 74%
    10:00 +3°C° 0.4 mm 2 mps 688 mmHg 72%
    11:00 +4°C° 0.4 mm 2 mps 687 mmHg 69%
    12:00 +6°C° 0.4 mm 2 mps 687 mmHg 66%
    13:00 +6°C° 0.2 mm 2 mps 686 mmHg 67%
    14:00 +5°C° 0.2 mm 2 mps 686 mmHg 68%
    15:00 +5°C° 0.2 mm 2 mps 686 mmHg 69%
    16:00 +4°C° 0.1 mm 2 mps 686 mmHg 71%
    17:00 +3°C° 0.1 mm 2 mps 686 mmHg 72%
    18:00 +2°C° 0.1 mm 2 mps 686 mmHg 74%
    19:00 +2°C° 0.2 mm 2 mps 686 mmHg 73%
    20:00 0°C° 0.2 mm 3 mps 686 mmHg 73%
    21:00 0°C° 0.2 mm 3 mps 687 mmHg 72%
    22:00 -1°C° 0.1 mm 3 mps 687 mmHg 71%
    23:00 -2°C° 0.1 mm 3 mps 687 mmHg 70%

    Day after tomorrow, 21 January, Monday

    Time Temperature Precipitation Wind Pressure Humidity
    00:00 -4°C° 0.1 mm 3 mps 687 mmHg 70%
    01:00 -4°C° 0.1 mm 2 mps 688 mmHg 68%
    02:00 -4°C° 0.1 mm 2 mps 688 mmHg 67%
    03:00 -4°C° 0.1 mm 2 mps 688 mmHg 65%
    04:00 -5°C° 0 mm 2 mps 688 mmHg 64%
    05:00 -5°C° 0 mm 2 mps 688 mmHg 63%
    06:00 -6°C° 0 mm 2 mps 688 mmHg 62%
    07:00 -5°C° 0 mm 2 mps 689 mmHg 58%
    08:00 -5°C° 0 mm 2 mps 689 mmHg 54%
    09:00 -4°C° 0 mm 2 mps 690 mmHg 50%
    10:00 -3°C° 0 mm 2 mps 689 mmHg 46%
    11:00 -1°C° 0 mm 2 mps 689 mmHg 43%
    12:00 +1°C° 0 mm 2 mps 689 mmHg 40%
    13:00 0°C° 0 mm 3 mps 689 mmHg 41%
    14:00 0°C° 0 mm 3 mps 688 mmHg 42%
    15:00 +1°C° 0 mm 3 mps 688 mmHg 43%
    16:00 +1°C° 0.1 mm 2 mps 688 mmHg 48%
    17:00 -1°C° 0.1 mm 2 mps 688 mmHg 54%
    18:00 -1°C° 0.1 mm 2 mps 688 mmHg 59%
    19:00 -1°C° 0.1 mm 2 mps 687 mmHg 60%
    20:00 -1°C° 0.1 mm 2 mps 687 mmHg 62%
    21:00 -2°C° 0.1 mm 2 mps 687 mmHg 64%
    22:00 -1°C° 0.1 mm 2 mps 687 mmHg 64%
    23:00 -1°C° 0.1 mm 2 mps 687 mmHg 64%

    22 January, Tuesday

    Time Temperature Precipitation Wind Pressure Humidity
    00:00 -1°C° 0.1 mm 2 mps 686 mmHg 65%
    01:00 -1°C° 0.3 mm 2 mps 686 mmHg 67%
    02:00 -1°C° 0.3 mm 2 mps 686 mmHg 69%
    03:00 -1°C° 0.3 mm 2 mps 686 mmHg 71%
    04:00 -1°C° 0.4 mm 2 mps 686 mmHg 72%
    05:00 +1°C° 0.4 mm 1 mps 686 mmHg 73%
    06:00 +1°C° 0.4 mm 1 mps 686 mmHg 74%
    07:00 -1°C° 0.5 mm 2 mps 687 mmHg 74%
    08:00 -1°C° 0.5 mm 2 mps 687 mmHg 73%
    09:00 -1°C° 0.5 mm 2 mps 688 mmHg 72%
    10:00 -1°C° 0.1 mm 2 mps 688 mmHg 67%
    11:00 +1°C° 0.1 mm 2 mps 689 mmHg 61%
    12:00 +2°C° 0.1 mm 2 mps 689 mmHg 56%
    13:00 +2°C° 0 mm 2 mps 689 mmHg 55%
    14:00 +2°C° 0 mm 2 mps 689 mmHg 54%
    15:00 +2°C° 0 mm 2 mps 689 mmHg 53%
    16:00 +1°C° 0 mm 1 mps 689 mmHg 60%
    17:00 0°C° 0 mm 1 mps 689 mmHg 66%
    18:00 -2°C° 0 mm 1 mps 689 mmHg 73%
    19:00 -2°C° 0 mm 1 mps 689 mmHg 73%
    20:00 -2°C° 0 mm 1 mps 689 mmHg 73%
    21:00 -3°C° 0 mm 1 mps 690 mmHg 73%
    22:00 -3°C° 0 mm 1 mps 689 mmHg 72%
    23:00 -2°C° 0 mm 1 mps 689 mmHg 71%

    23 January, Wednesday

    Time Temperature Precipitation Wind Pressure Humidity
    00:00 -4°C° 0 mm 2 mps 689 mmHg 70%
    01:00 -4°C° 0 mm 2 mps 689 mmHg 70%
    02:00 -4°C° 0 mm 2 mps 688 mmHg 71%
    03:00 -4°C° 0 mm 2 mps 688 mmHg 71%
    04:00 -3°C° 0 mm 2 mps 688 mmHg 73%
    05:00 -3°C° 0 mm 2 mps 687 mmHg 75%
    06:00 -3°C° 0 mm 2 mps 687 mmHg 77%
    07:00 -2°C° 0.1 mm 2 mps 687 mmHg 75%
    08:00 -1°C° 0.1 mm 2 mps 687 mmHg 72%
    09:00 +1°C° 0.1 mm 2 mps 687 mmHg 70%
    10:00 +1°C° 0.2 mm 3 mps 686 mmHg 65%
    11:00 +2°C° 0.2 mm 3 mps 686 mmHg 60%
    12:00 +3°C° 0.2 mm 4 mps 685 mmHg 55%
    13:00 +3°C° 0.6 mm 3 mps 685 mmHg 61%
    14:00 +2°C° 0.6 mm 3 mps 684 mmHg 67%
    15:00 +1°C° 0.6 mm 3 mps 684 mmHg 73%
    16:00 0°C° 1.1 mm 3 mps 685 mmHg 75%
    17:00 -2°C° 1.1 mm 3 mps 685 mmHg 77%
    18:00 -4°C° 1.1 mm 3 mps 686 mmHg 80%
    19:00 -5°C° 0.3 mm 3 mps 687 mmHg 77%
    20:00 -6°C° 0.3 mm 3 mps 687 mmHg 74%
    21:00 -6°C° 0.3 mm 3 mps 688 mmHg 71%
    22:00 -7°C° 0.1 mm 3 mps 688 mmHg 70%
    23:00 -7°C° 0.1 mm 3 mps 688 mmHg 70%

    24 January, Thursday

    Time Temperature Precipitation Wind Pressure Humidity
    00:00 -7°C° 0.1 mm 3 mps 689 mmHg 70%
    01:00 -6°C° 0.1 mm 2 mps 689 mmHg 70%
    02:00 -6°C° 0.1 mm 2 mps 690 mmHg 70%
    03:00 -6°C° 0.1 mm 2 mps 690 mmHg 70%
    04:00 -6°C° 0.1 mm 2 mps 690 mmHg 72%
    05:00 -7°C° 0.1 mm 2 mps 691 mmHg 74%
    06:00 -6°C° 0.1 mm 1 mps 691 mmHg 76%
    07:00 -6°C° 0 mm 2 mps 692 mmHg 72%
    08:00 -5°C° 0 mm 2 mps 692 mmHg 69%
    09:00 -5°C° 0 mm 2 mps 693 mmHg 65%
    10:00 -4°C° 0 mm 2 mps 693 mmHg 62%
    11:00 -3°C° 0 mm 2 mps 693 mmHg 59%
    12:00 -2°C° 0 mm 2 mps 694 mmHg 56%
    13:00 -2°C° 0 mm 2 mps 694 mmHg 57%
    14:00 -2°C° 0 mm 2 mps 694 mmHg 58%
    15:00 -2°C° 0 mm 2 mps 694 mmHg 59%
    16:00 -3°C° 0 mm 2 mps 694 mmHg 66%
    17:00 -5°C° 0 mm 2 mps 694 mmHg 73%
    18:00 -6°C° 0 mm 1 mps 694 mmHg 81%
    19:00 -6°C° 0 mm 1 mps 694 mmHg 81%
    20:00 -7°C° 0 mm 1 mps 694 mmHg 81%
    21:00 -7°C° 0 mm 1 mps 695 mmHg 81%
    22:00 -7°C° 0 mm 1 mps 694 mmHg 80%
    23:00 -8°C° 0 mm 1 mps 694 mmHg 80%
    Show more